Weather History for Alexandria Esle, LA

Change the Weather History Date:

Sunday, June 23, 2013

  Actual Average Record
Temperature  
Mean Temperature 80 °F -  
Max Temperature 93 °F 91 °F 99 °F (1977)
Min Temperature 69 °F 69 °F 59 °F (2001)
Cooling Degree Days 15    
Growing Degree Days 30 (Base 50)    
Moisture  
Dew Point 71 °F    
Average Humidity 80    
Maximum Humidity 94    
Minimum Humidity 48    
Precipitation  
Precipitation 0.00 in - - ()
Sea Level Pressure  
Sea Level Pressure 30.02 in    
Wind  
Wind Speed 1 mph (SSE)    
Max Wind Speed 8 mph    
Max Gust Speed -    
Visibility 6 miles    
Events Fog    
Averages and records for this station are not official NWS values.
T = Trace of Precipitation, MM = Missing Value Source: NWS Daily Summary

Daily Weather History Graph

Daily Weather History Graph

Search for Another Location

Airport:

Trip Planner

Search our weather history database for the weather conditions in past years. The results will help you decide how hot, cold, wet, or windy it might be!

Date:

Astronomy

Jun. 23, 2013 Rise Set
Actual Time 6:05 AM CDT 8:17 PM CDT
Civil Twilight 5:37 AM CDT 8:45 PM CDT
Nautical Twilight 5:03 AM CDT 9:19 PM CDT
Astronomical Twilight 4:26 AM CDT 9:56 PM CDT
Moon 8:35 PM CDT (6/23) 6:19 AM CDT (6/23)
Length of Visible Light 15h 07m
Length of Day
14h 11m
Full, 100% of the Moon is Illuminated
Jun 23
Full
Jun 29
Last Quarter
Jul 8
New
Jul 15
First Quarter
Jul 22
Full

Hourly Weather History & Observations

Time (CDT) Temp. Heat Index Dew Point Humidity Pressure Visibility Wind Dir Wind Speed Gust Speed Precip Events Conditions
12:53 AM 75.9 °F - 71.1 °F 85% 30.03 in 10.0 mi Calm Calm - N/A   Clear
1:53 AM 73.9 °F - 71.1 °F 91% 30.02 in 6.0 mi Calm Calm - N/A   Partly Cloudy
2:48 AM 73.4 °F - 69.8 °F 88% 30.02 in 1.8 mi Calm Calm - N/A   Clear
2:53 AM 72.0 °F - 70.0 °F 93% 30.01 in 0.8 mi Calm Calm - N/A   Clear
3:03 AM 71.6 °F - 69.8 °F 94% 30.01 in 2.0 mi Calm Calm - N/A   Clear
3:11 AM 71.6 °F - 69.8 °F 94% 30.01 in 4.0 mi Calm Calm - N/A   Clear
3:37 AM 71.6 °F - 69.8 °F 94% 30.01 in 1.8 mi Calm Calm - N/A   Clear
3:49 AM 71.6 °F - 69.8 °F 94% 30.01 in 0.8 mi Calm Calm - N/A   Mist
3:53 AM 71.1 °F - 69.1 °F 93% 30.01 in 0.5 mi Calm Calm - N/A Fog Fog
4:03 AM 71.6 °F - 69.8 °F 94% 30.01 in 1.2 mi Calm Calm - N/A   Partly Cloudy
4:06 AM 71.6 °F - 69.8 °F 94% 30.01 in 3.0 mi Calm Calm - N/A   Partly Cloudy
4:34 AM 71.6 °F - 69.8 °F 94% 30.02 in 2.5 mi Calm Calm - N/A   Clear
4:42 AM 71.6 °F - 69.8 °F 94% 30.02 in 3.0 mi Calm Calm - N/A   Clear
4:53 AM 71.1 °F - 69.1 °F 93% 30.01 in 3.0 mi Calm Calm - N/A   Clear
5:20 AM 71.6 °F - 69.8 °F 94% 30.02 in 1.8 mi Calm Calm - N/A   Clear
5:30 AM 71.6 °F - 69.8 °F 94% 30.03 in 0.5 mi Calm Calm - N/A Fog Fog
5:53 AM 70.0 °F - 68.0 °F 93% 30.03 in 1.5 mi Calm Calm - N/A   Clear
6:01 AM 71.6 °F - 68.0 °F 88% 30.04 in 2.0 mi Calm Calm - N/A   Clear
6:24 AM 69.8 °F - 68.0 °F 94% 30.04 in 1.0 mi Calm Calm - N/A   Clear
6:39 AM 71.6 °F - 68.0 °F 88% 30.05 in 3.0 mi Calm Calm - N/A   Clear
6:53 AM 71.1 °F - 69.1 °F 93% 30.04 in 3.0 mi Calm Calm - N/A   Clear
7:53 AM 77.0 °F - 73.0 °F 88% 30.06 in 10.0 mi Calm Calm - N/A   Clear
8:53 AM 82.0 °F 87.9 °F 73.9 °F 76% 30.06 in 10.0 mi SE 4.6 mph - N/A   Clear
9:53 AM 84.0 °F 90.2 °F 73.0 °F 69% 30.06 in 10.0 mi South 4.6 mph - N/A   Scattered Clouds
10:53 AM 88.0 °F 94.7 °F 72.0 °F 59% 30.07 in 10.0 mi Calm Calm - N/A   Clear
11:53 AM 88.0 °F 94.7 °F 72.0 °F 59% 30.06 in 10.0 mi Variable 5.8 mph - N/A   Partly Cloudy
12:53 PM 91.0 °F 97.6 °F 71.1 °F 52% 30.04 in 10.0 mi East 4.6 mph - N/A   Partly Cloudy
1:53 PM 91.9 °F 98.4 °F 71.1 °F 50% 30.02 in 10.0 mi Variable 3.5 mph - N/A   Clear
2:53 PM 91.9 °F 97.4 °F 70.0 °F 48% 30.01 in 10.0 mi South 5.8 mph - N/A   Scattered Clouds
3:53 PM 91.9 °F 97.4 °F 70.0 °F 48% 30.00 in 10.0 mi SE 6.9 mph - N/A   Scattered Clouds
4:53 PM 91.0 °F 96.6 °F 70.0 °F 50% 29.99 in 10.0 mi SSW 4.6 mph - N/A   Scattered Clouds
5:53 PM 91.9 °F 98.4 °F 71.1 °F 50% 29.98 in 10.0 mi East 8.1 mph - N/A   Clear
6:53 PM 90.0 °F 96.9 °F 72.0 °F 55% 29.99 in 10.0 mi ESE 4.6 mph - N/A   Clear
7:53 PM 84.9 °F 93.3 °F 75.0 °F 72% 30.00 in 10.0 mi SSW 3.5 mph - N/A   Clear
8:53 PM 82.0 °F 87.4 °F 73.0 °F 74% 30.00 in 10.0 mi Calm Calm - N/A   Clear
9:53 PM 78.1 °F - 73.9 °F 87% 30.02 in 10.0 mi Calm Calm - N/A   Clear
10:53 PM 77.0 °F - 73.0 °F 88% 30.04 in 10.0 mi Calm Calm - N/A   Clear
11:53 PM 75.0 °F - 72.0 °F 90% 30.04 in 8.0 mi Calm Calm - N/A   Clear